Voltar ao catálogo

DELTA 1 DEB

AtivoSSO
NORAD 21437·DEBRIS·🇺🇸 United States

Lançado Jun 12, 1975 de Vandenberg Space Force Base

Loading…

Próximas Passagens (próximas 24 horas)

TLE

AtualizadoSource: Space-Track

Época: Sep 13, 2026, 12:18 UTC

1 21437U 75052DV  26256.51284973  .00000080  00000-0  23841-3 0  9995
2 21437 100.1773 157.8293 0054834 240.1854 297.0914 13.37527418724221

Acompanhe DELTA 1 DEB em tempo real com AllMySat

Download on the App Store